Regional Weather Roundup
Issued by NWS

Home | Current Version | Previous Version | Text Only | Print | Product List | Glossary Off
Versions: 1 2 3 4 5 6 7 8 9 10 11 12 13 14 15 16 17 18 19 20 21 22 23 24 25 26 27 28 29 30 31 32 33 34 35 36 37 38 39 40 41 42 43 44 45 46 47 48 49 50

437
ASUS43 KMPX 260801
RWRMN
WEATHER ROUNDUP FOR MINNESOTA
NATIONAL WEATHER SERVICE TWIN CITIES/CHANHASSEN MN
300 AM CDT MON JUN 26 2017


NOTE: "FAIR" INDICATES FEW OR NO CLOUDS BELOW 12,000 FEET WITH NO
SIGNIFICANT WEATHER AND/OR OBSTRUCTIONS TO VISIBILITY. N/A MEANS
CURRENT SKY AND/OR WEATHER CONDITIONS ARE NOT AVAILABLE.

MNZ060>063-068>070-260900-
   Twin Cities Metro

CITY           SKY/WX    TMP DP  RH WIND       PRES   REMARKS
TWIN CITIES    CLEAR     54  44  69 NW5       30.14R
ST PAUL        CLEAR     51  45  79 N7        30.14S
CRYSTAL        CLEAR     50  42  74 NW6       30.13S
BLAINE         CLEAR     50  45  81 NW3       30.14S
LAKEVILLE      CLEAR     48  46  93 W5        30.14S
EDEN PRAIRIE   CLEAR     54  45  71 NW5       30.14R
SOUTH ST PAUL  CLEAR     52  44  75 CALM      30.14R
LAKE ELMO      FAIR      50  43  76 NW3       30.15R
$$
MNZ001>005-007-008-013>017-022>024-027-028-260900-
   Northwest Minnesota

CITY           SKY/WX    TMP DP  RH WIND       PRES   REMARKS
BEMIDJI        CLEAR     40  39  98 NW3       30.17S
HALLOCK        CLEAR     46  43  87 W6        30.19S
ROSEAU         CLEAR     46  43  87 W7        30.16F
WARROAD        CLEAR     45  41  87 W6        30.16F
CROOKSTON      CLEAR     43  39  87 NW3       30.20F
FOSSTON        CLEAR     39  39 100 CALM      30.19S
DETROIT LAKES  CLEAR     46  41  81 NW3       30.21R
MOORHEAD       CLEAR     46  39  76 CALM      30.22S
PARK RAPIDS    CLEAR     40  37  89 W6        30.17S
MAHNOMEN       FAIR      45  42  90 CALM      30.19S
$$
MNZ006-009>011-018-025>026-260900-
   North Central Minnesota

CITY           SKY/WX    TMP DP  RH WIND       PRES   REMARKS
BAUDETTE       CLEAR     44  43  96 NW6       30.14S
FLAG ISLAND    CLEAR     52  46  82 W8        30.12F
INTL FALLS     PTCLDY    42  40  92 W3        30.11F
WASKISH        CLEAR     50  45  81 NW12      30.15S
BIG FORK       CLEAR     39  37  93 CALM      30.13F FOG
LONGVILLE      CLEAR     43  43 100 W3        30.15S
GRAND RAPIDS   CLEAR     44  43  96 CALM      30.15F
CRANE LAKE     CLEAR     36  36 100 CALM      30.12S
ORR            CLEAR     45  43  93 NW5       30.09S
COOK           PTCLDY    43  41  93 CALM      30.11S
WALKER         FAIR      41  40  97 W3        30.17R
$$
MNZ012-019>021-037-260900-
   Northeast Minnesota

CITY           SKY/WX    TMP DP  RH WIND       PRES   REMARKS
DULUTH         MOCLDY    44  44 100 NW8       30.09F
ELY            CLOUDY    45  45 100 W3        30.08F
HIBBING        PTCLDY    39  39 100 NW3       30.11F FOG
EVELETH        MOCLDY    46  41  82 NW6       30.11S
DULUTH HARBOR  PTCLDY    50  46  87 SW5       30.12S
TWO HARBORS    LGT RAIN  50  45  81 NW3       30.07S
SILVER BAY     RAIN      48  46  93 CALM      30.06F
GRAND MARAIS     N/A     49  47  93 VRB7      30.04R
G MARAIS ARPRT LGT RAIN  45  39  81 N8        30.04F
$$
MNZ029>031-032-039>041-046>048-054>057-064-260900-
   West Central Minnesota

CITY           SKY/WX    TMP DP  RH WIND       PRES   REMARKS
FERGUS FALLS   CLEAR     48  43  81 CALM      30.19R
WHEATON        CLEAR     48  45  87 CALM      30.23S
MORRIS         CLEAR     46  46 100 NW5       30.19S
ALEXANDRIA     CLEAR     49  43  80 NW5       30.20R
ELBOW LAKE     FAIR      47  44  88 NW3       30.20S
WADENA         CLEAR     43  41  93 NW5       30.18S
GLENWOOD       CLEAR     46  43  87 NW3       30.19S
APPLETON       PTCLDY    46  45  93 NW5       30.19S
BENSON         FOG       46  45  93 N3        30.21R VSB 1/4
ORTONVILLE     PTCLDY    52  46  82 NW6       30.21R
MADISON        PTCLDY    52  48  87 NW5       30.20S
WILLMAR        FAIR      48  46  93 NW3       30.20R
$$
MNZ033>034-036-042>043-049>051-058-059-260900-
   Central Minnesota

CITY           SKY/WX    TMP DP  RH WIND       PRES   REMARKS
ST CLOUD       CLEAR     47  43  86 NW6       30.16S
SAUK CENTRE    FAIR      45  42  90 CALM      30.19R
PAYNESVILLE    CLEAR     43  43 100 W3        30.18S
AITKIN           N/A     37  36  93 CALM      30.13S FOG
PINE RIVER     CLEAR     46  45  93 NW3       30.19S
BRAINERD       CLEAR     48  43  82 NW6       30.16S
STAPLES        CLEAR     43  39  87 NW5       30.17S
LONG PRAIRIE   FAIR      46  41  81 W5        30.18S
LITTLE FALLS   CLEAR     41  37  87 CALM      30.17R
LITCHFIELD     CLEAR     52  48  87 NW3       30.17F
BUFFALO        CLEAR     52  43  72 NW3       30.16F
MAPLE LAKE     CLEAR     51  46  80 NW5       30.17S
HUTCHINSON     CLEAR     49  47  95 W3        30.17S
$$
MNZ037-044-045-052-053-260900-
   East Central Minnesota

CITY           SKY/WX    TMP DP  RH WIND       PRES   REMARKS
PRINCETON      CLEAR     45  41  87 CALM      30.15S
MORA           CLEAR     45  43  93 CALM      30.15S
CAMBRIDGE      CLEAR     46  39  76 CALM      30.13R
RUSH CITY      CLEAR     41  41 100 CALM      30.14S
MOOSE LAKE     CLEAR     41  39  93 CALM      30.11F
HINCKLEY       FAIR      43  43 100 CALM      30.13S
CLOQUET        PTCLDY    43  39  87 W6        30.11S
MCGREGOR       CLEAR     45  43  93 CALM      30.14S
$$
MNZ071>073-080-081-089-090-097-098-260900-
   Southwest Minnesota

CITY           SKY/WX    TMP DP  RH WIND       PRES   REMARKS
MONTEVIDEO     MOCLDY    52  46  82 NW6       30.19S
GRANITE FALLS  CLEAR     48  46  90 W6        30.21S
CANBY          CLEAR     47  45  90 CALM      30.21S
MARSHALL       CLEAR     49  46  90 W6        30.20S
REDWOOD FALLS  MOCLDY    52  46  80 W9        30.18S
OLIVIA         CLEAR     50  45  81 NW7       30.17S
PIPESTONE      CLEAR     54  48  82 CALM      30.21S
WINDOM         CLEAR     52  48  87 W3        30.19S
WORTHINGTON    PTCLDY    53  50  89 W7        30.21F
JACKSON        MOCLDY    54  50  87 CALM      30.20R
TRACY          CLEAR     52  49  87 W6        30.21R
SLAYTON        PTCLDY    53  50  89 W6        30.21F
$$
MNZ065>067-074>077-082>085-091>093-260900-
   South Central Minnesota

CITY           SKY/WX    TMP DP  RH WIND       PRES   REMARKS
MANKATO        MOCLDY    53  47  79 W6        30.17R
NEW ULM        PTCLDY    50  45  81 W7        30.17S
ST JAMES       PTCLDY    52  46  82 W5        30.19R
FAIRMONT       CLOUDY    55  50  83 W6        30.18F
GLENCOE        CLEAR     52  49  92 CALM      30.16R
FARIBAULT      PTCLDY    54  46  76 NW5       30.15S
OWATONNA       PTCLDY    50  46  87 W7        30.15S
WASECA         PTCLDY    52  46  82 W5        30.17S
ALBERT LEA     CLOUDY    54  46  76 W3        30.15F
$$
MNZ078>079-086>088-094>096-260900-
   Southeast Minnesota

CITY           SKY/WX    TMP DP  RH WIND       PRES   REMARKS
ROCHESTER      PTCLDY    50  45  83 W9        30.14R
RED WING       PTCLDY    46  43  87 CALM      30.12R
STANTON        CLEAR     49  45  87 CALM      30.13S
DODGE CENTER   PTCLDY    52  45  76 W7        30.14S
WINONA         CLEAR     48  46  93 CALM      30.12S
AUSTIN         CLOUDY    55  45  67 W8        30.14S
PRESTON        PTCLDY    51  43  75 W9        30.14R
$$
ABBREVIATIONS USED IN REMARKS
   TC - TEMPERATURES IN CELSIUS
  WCI - WIND CHILL INDEX
   HX - HEAT INDEX
  VSB - VISIBILITY
$$




USA.gov is the U.S. government's official web portal to all federal, state and local government web resources and services.